Regional Weather Roundup
Issued by NWS Sterling, VA

Home | Current Version | Previous Version | Text Only | Print | Product List | Glossary On
Versions: 1 2 3 4 5 6 7 8 9 10 11 12 13 14 15 16 17 18 19 20 21 22 23 24 25 26 27 28 29 30 31 32 33 34 35 36 37 38 39 40 41 42 43 44 45 46 47 48 49 50
000
ASUS41 KLWX 010610
RWRLWX

REGIONAL WEATHER ROUNDUP
NATIONAL WEATHER SERVICE BALTIMORE MD/WASHINGTON DC
200 AM EDT FRI AUG 01 2014

Note: "FAIR" indicates few or no clouds below 12,000 feet
with no significant weather and/or obstructions to visibility.
 TC=TEMPERATURE CELSIUS

 * =Non NWS site. Station does not report precipitation (e.g. rain,
    snow, etc.), thunder, or fog.

DCZ001-MDZ009-015-VAZ040>042-051-053>054-010700-
WASHINGTON METRO
  /KDAA//-FT BELVOIR

CITY           SKY/WX    TMP DP  RH WIND       PRES   REMARKS
WASHINGTON NAT CLOUDY    77  66  68 S8        30.15R
DULLES         MOCLDY    70  65  84 S5        30.14S
ANDREWS AFB    CLOUDY    70  67  89 S6        30.15S
QUANTICO       CLOUDY    75  66  73 SW6       30.15S
COLLEGE PARK*  CLOUDY    72  66  83 CALM      30.14S
LEESBURG*      MOCLDY    68  66  94 SW3       30.14F
MANASSAS*      CLOUDY    70  68  94 S3        30.14S
GAITHERSBURG*  PTCLDY    72  63  73 S3        30.18S

$$

MDZ006>007-011-014-010700-
BALTIMORE METRO

CITY           SKY/WX    TMP DP  RH WIND       PRES   REMARKS
BWI AIRPORT    MOCLDY    71  65  81 CALM      30.14S
MD SCIENCE CTR   N/A     75  65  70 MISG      30.15R
MARTIN STATE   MOCLDY    73  68  83 CALM      30.15S
ANNAPOLIS      MOCLDY    74  67  78 S6        30.14S
FORT MEADE*    MOCLDY    64  63  94 CALM      30.16S

$$

MDZ012-015-019>023-010700-
MARYLAND EASTERN SHORE

CITY           SKY/WX    TMP DP  RH WIND       PRES   REMARKS
OCEAN CITY     PTCLDY    73  68  84 S7        30.18S
SALISBURY      MOCLDY    71  66  84 S5        30.17S
BAY BRIDGE AP*   N/A     75  68  78 S6        30.15S
CAMBRIDGE*     CLOUDY    72  68  88 S3        30.16R
EASTON*        CLOUDY    74  72  92 S6        30.19S

$$

MDZ017>025-010700-
SOUTHERN MARYLAND

CITY           SKY/WX    TMP DP  RH WIND       PRES   REMARKS
PATUXENT RIVER CLOUDY    75  67  76 S7        30.15S
ST INIGOES     CLOUDY    76  64  66 S10       30.15S
LEONARDTOWN*   CLOUDY    72  64  78 CALM      30.17S

$$

MDZ003>005-010700-
NORTH CENTRAL MARYLAND

CITY           SKY/WX    TMP DP  RH WIND       PRES   REMARKS
FREDERICK*     PTCLDY    64  64 100 CALM      30.16S
HAGERSTOWN APT CLEAR     70  60  70 S3        30.14S
WESTMINSTER*   CLOUDY    72  66  83 S3        30.16S

$$

MDZ501>502-010700-
WESTERN MARYLAND

CITY           SKY/WX    TMP DP  RH WIND       PRES   REMARKS
OAKLAND*       PTCLDY    61  57  88 SE6       30.22F
CUMBERLAND*    PTCLDY    64  61  88 N5        30.18S

$$

VAZ025>031-010700-
SHENANDOAH VALLEY

CITY           SKY/WX    TMP DP  RH WIND       PRES   REMARKS
WINCHESTER*    PTCLDY    63  61  94 CALM      30.14F
STAUNTON*      CLOUDY    68  62  80 S3        30.19F

$$

WVZ021-048>050-054>055-010700-
EASTERN WEST VIRGINIA PANHANDLE

CITY           SKY/WX    TMP DP  RH WIND       PRES   REMARKS
MARTINSBURG    CLEAR     65  60  84 CALM      30.14S
PETERSBURG*    PTCLDY    59  56  87 CALM      30.17S

$$

VAZ036>039-050-010700-
CENTRAL FOOTHILLS

CITY           SKY/WX    TMP DP  RH WIND       PRES   REMARKS
CHARLOTTESVILL CLOUDY    72  66  81 CALM      30.15S
ORANGE*        CLOUDY    70  64  83 CALM      30.16S

$$

VAZ055>057-010700-
NORTH AND CENTRAL PIEDMONT

CITY           SKY/WX    TMP DP  RH WIND       PRES   REMARKS
FREDERICKSBRG* CLOUDY    73  67  82 CALM      30.14S
STAFFORD*      CLOUDY    68  68 100 CALM      30.19R

$$

NCZ024-NYZ072-PAZ021-071-VAZ022-071-010700-
OTHER REGIONAL OBSERVATIONS

CITY           SKY/WX    TMP DP  RH WIND       PRES   REMARKS
NEW YORK CITY  CLEAR     73  64  73 CALM      30.18S
PHILADELPHIA   CLOUDY    73  67  81 SE5       30.17R
PITTSBURGH     PTCLDY    63  60  90 CALM      30.13S
ROANOKE        CLOUDY    69  61  75 NE3       30.19F
RICHMOND       LGT RAIN  74  69  85 S7        30.17R
RALEIGH        CLOUDY    70  67  90 NE3       30.14F

$$

ANZ530>537-010700-
MARINE OBSERVATIONS

STATION/POSITION TIME  TEMP    WIND        PRES
                       AIR SEA DIR/SP/G
                 (UTC) (F)     (DEG/KT/KT) (MB)
THOMAS PT LIGHT  0600   76 78  190/ 14/ 16 1021.2S
BALT KEY BRIDGE  0600   76     190/  7/  7 1020.3R
COVE POINT       0600   76     190/ 12/ 14 1021.0R
LEWISETTA        0600   75 78  210/  8/ 10 1021.0S
SOLOMONS ISLAND  0600      79                N/A
PINEY POINT      0600          200/ 10/ 12   N/A

$$




USA.gov is the U.S. government's official web portal to all federal, state and local government web resources and services.